CAL349 VHHH-RCTP

Flight info

Callsign CAL349
Flight time 1h 6m
Altitude 35000
Route DALOL1Y DALOL V631 ENVAR M750 EXTRA/N0512F290 M750 TONGA TONGA1A
Aircraft B77W/H-SDE1E2E3FGHIJ2J3J4J5M1RWXYZ/LB1D1

Departure

Time 2026-05-05 09:25
Airport Hong Kong International Airport (VHHH)

Arrival

Time 2026-05-05 10:32
Airport Taiwan Taoyuan International Airport (RCTP)
Time Latitude Longitude Altitude Speed Heading
2026-05-05 09:13 22.31205 113.92615 42 ft 0 kts 115°
2026-05-05 09:17 22.31208 113.92608 42 ft 2 kts 114°
2026-05-05 09:17 22.31215 113.92592 41 ft 2 kts 116°
2026-05-05 09:17 22.31223 113.92576 38 ft 2 kts 117°
2026-05-05 09:18 22.31228 113.92559 39 ft 2 kts 86°
2026-05-05 09:18 22.31225 113.92542 38 ft 2 kts 70°
2026-05-05 09:18 22.31218 113.92525 37 ft 2 kts 47°
2026-05-05 09:18 22.31205 113.92516 39 ft 2 kts 20°
2026-05-05 09:19 22.31193 113.92511 40 ft 1 kts 23°
2026-05-05 09:19 22.31192 113.92510 40 ft 0 kts 23°
2026-05-05 09:19 22.31196 113.92512 39 ft 2 kts 18°
2026-05-05 09:20 22.31216 113.92511 39 ft 3 kts 350°
2026-05-05 09:20 22.31248 113.92492 42 ft 9 kts 317°
2026-05-05 09:20 22.31295 113.92400 42 ft 18 kts 295°
2026-05-05 09:20 22.31350 113.92274 42 ft 19 kts 295°
2026-05-05 09:21 22.31406 113.92148 42 ft 19 kts 295°
2026-05-05 09:21 22.31504 113.92065 42 ft 19 kts 339°
2026-05-05 09:21 22.31605 113.91991 42 ft 19 kts 283°
2026-05-05 09:21 22.31577 113.91856 41 ft 19 kts 250°
2026-05-05 09:22 22.31533 113.91723 42 ft 20 kts 251°
2026-05-05 09:22 22.31475 113.91543 42 ft 33 kts 250°
2026-05-05 09:22 22.31395 113.91294 43 ft 35 kts 251°
2026-05-05 09:22 22.31316 113.91051 42 ft 34 kts 251°
2026-05-05 09:23 22.31240 113.90815 42 ft 33 kts 251°
2026-05-05 09:23 22.31165 113.90584 41 ft 32 kts 251°
2026-05-05 09:23 22.31091 113.90360 41 ft 31 kts 251°
2026-05-05 09:23 22.31022 113.90141 42 ft 30 kts 251°
2026-05-05 09:24 22.30954 113.89931 42 ft 27 kts 251°
2026-05-05 09:24 22.30953 113.89816 42 ft 16 kts 319°
2026-05-05 09:24 22.31055 113.89779 41 ft 16 kts 14°
2026-05-05 09:24 22.31117 113.89875 41 ft 17 kts 68°
2026-05-05 09:25 22.31184 113.90076 41 ft 53 kts 71°
2026-05-05 09:25 22.31429 113.90830 43 ft 158 kts 70°
2026-05-05 09:25 22.31853 113.92154 586 ft 197 kts 69°
2026-05-05 09:25 22.32311 113.93580 1726 ft 205 kts 72°
2026-05-05 09:26 22.32806 113.95117 2360 ft 232 kts 72°
2026-05-05 09:26 22.33345 113.96815 3025 ft 250 kts 75°
2026-05-05 09:26 22.33739 113.98705 3788 ft 265 kts 82°
2026-05-05 09:26 22.34043 114.00706 4693 ft 275 kts 82°
2026-05-05 09:27 22.34356 114.02773 5609 ft 280 kts 83°
2026-05-05 09:27 22.34292 114.04876 6423 ft 286 kts 108°
2026-05-05 09:27 22.33351 114.06743 7298 ft 285 kts 134°
2026-05-05 09:27 22.31812 114.08065 8226 ft 284 kts 155°
2026-05-05 09:28 22.29941 114.08715 9146 ft 284 kts 176°
2026-05-05 09:28 22.27997 114.08753 10026 ft 284 kts 185°
2026-05-05 09:28 22.25971 114.08702 10614 ft 302 kts 184°
2026-05-05 09:28 22.23756 114.08673 10849 ft 334 kts 184°
2026-05-05 09:29 22.21333 114.08648 11068 ft 363 kts 183°
2026-05-05 09:29 22.18762 114.08820 11487 ft 381 kts 169°
2026-05-05 09:29 22.16306 114.10012 12272 ft 398 kts 147°
2026-05-05 09:29 22.14319 114.12141 13246 ft 411 kts 126°
2026-05-05 09:30 22.12952 114.14865 14034 ft 419 kts 118°
2026-05-05 09:30 22.11682 114.17731 14733 ft 428 kts 118°
2026-05-05 09:30 22.10401 114.20552 15497 ft 434 kts 119°
2026-05-05 09:30 22.09031 114.23469 16315 ft 439 kts 120°
2026-05-05 09:31 22.07448 114.26266 16979 ft 439 kts 133°
2026-05-05 09:31 22.05421 114.28227 17559 ft 432 kts 149°
2026-05-05 09:31 22.02905 114.30067 18142 ft 442 kts 150°
2026-05-05 09:31 22.00370 114.31990 18824 ft 448 kts 148°
2026-05-05 09:32 21.97841 114.33973 19565 ft 451 kts 148°
2026-05-05 09:32 21.95365 114.35933 20231 ft 456 kts 148°
2026-05-05 09:32 21.92831 114.37938 20854 ft 461 kts 148°
2026-05-05 09:32 21.90227 114.39990 21475 ft 467 kts 148°
2026-05-05 09:33 21.87600 114.42067 22079 ft 469 kts 146°
2026-05-05 09:33 21.85274 114.44590 22495 ft 484 kts 128°
2026-05-05 09:33 21.83696 114.47825 23027 ft 496 kts 109°
2026-05-05 09:33 21.82797 114.51400 23515 ft 498 kts 105°
2026-05-05 09:34 21.81939 114.55040 23936 ft 505 kts 105°
2026-05-05 09:34 21.81053 114.58712 24430 ft 508 kts 106°
2026-05-05 09:34 21.80136 114.62397 24956 ft 511 kts 106°
2026-05-05 09:34 21.79205 114.66046 25439 ft 515 kts 107°
2026-05-05 09:35 21.78242 114.69774 25887 ft 519 kts 107°
2026-05-05 09:35 21.76287 114.77308 26790 ft 527 kts 107°
2026-05-05 09:35 21.75298 114.81125 27240 ft 531 kts 107°
2026-05-05 09:36 21.74373 114.84982 27683 ft 535 kts 102°
2026-05-05 09:36 21.74026 114.88982 28097 ft 540 kts 90°
2026-05-05 09:36 21.74079 114.93027 28526 ft 543 kts 88°
2026-05-05 09:36 21.74210 114.97042 28921 ft 546 kts 88°
2026-05-05 09:37 21.74320 115.01138 29281 ft 550 kts 89°
2026-05-05 09:37 21.74371 115.05258 29637 ft 553 kts 90°
2026-05-05 09:37 21.74370 115.09405 30021 ft 555 kts 90°
2026-05-05 09:37 21.74342 115.13551 30451 ft 554 kts 90°
2026-05-05 09:38 21.74314 115.17693 30934 ft 553 kts 90°
2026-05-05 09:38 21.74295 115.21824 31422 ft 551 kts 90°
2026-05-05 09:38 21.74284 115.25937 31888 ft 550 kts 90°
2026-05-05 09:38 21.74277 115.30048 32343 ft 550 kts 90°
2026-05-05 09:39 21.74271 115.34156 32798 ft 549 kts 90°
2026-05-05 09:39 21.74263 115.38205 33259 ft 548 kts 90°
2026-05-05 09:39 21.74253 115.42303 33724 ft 547 kts 90°
2026-05-05 09:39 21.74241 115.46388 34141 ft 546 kts 90°
2026-05-05 09:40 21.74228 115.50470 34526 ft 546 kts 90°
2026-05-05 09:40 21.74214 115.54545 34898 ft 545 kts 90°
2026-05-05 09:40 21.74184 115.62694 34974 ft 544 kts 90°
2026-05-05 09:41 21.74155 115.70785 34976 ft 545 kts 90°
2026-05-05 09:41 21.74123 115.78941 34973 ft 546 kts 90°
2026-05-05 09:42 21.74087 115.87106 34971 ft 546 kts 90°
2026-05-05 09:42 21.74046 115.95274 34974 ft 546 kts 90°
2026-05-05 09:43 21.74001 116.03439 34974 ft 546 kts 90°
2026-05-05 09:43 21.73952 116.11547 34971 ft 545 kts 90°
2026-05-05 09:44 21.73899 116.19703 34968 ft 545 kts 90°
2026-05-05 09:44 21.73842 116.27850 34970 ft 545 kts 90°
2026-05-05 09:45 21.73782 116.35992 34970 ft 544 kts 90°
2026-05-05 09:45 21.73717 116.44132 34975 ft 544 kts 90°
2026-05-05 09:46 21.73649 116.52215 34974 ft 544 kts 90°
2026-05-05 09:46 21.73576 116.60350 34969 ft 544 kts 90°
2026-05-05 09:47 21.73500 116.68487 34973 ft 544 kts 90°
2026-05-05 09:47 21.73821 116.76614 34975 ft 544 kts 81°
2026-05-05 09:48 21.75470 116.84468 34975 ft 542 kts 70°
2026-05-05 09:48 21.78175 116.92010 34979 ft 541 kts 65°
2026-05-05 09:49 21.80994 116.99513 34973 ft 541 kts 66°
2026-05-05 09:49 21.83764 117.07062 34973 ft 542 kts 66°
2026-05-05 09:50 21.86478 117.14586 34973 ft 543 kts 66°
2026-05-05 09:50 21.89206 117.22171 34971 ft 543 kts 66°
2026-05-05 09:51 21.91937 117.29762 34977 ft 544 kts 66°
2026-05-05 09:51 21.93308 117.33571 35120 ft 547 kts 66°
2026-05-05 09:51 21.94678 117.37386 35505 ft 545 kts 66°
2026-05-05 09:52 21.96039 117.41179 35964 ft 542 kts 66°
2026-05-05 09:52 21.97394 117.44957 36411 ft 539 kts 66°
2026-05-05 09:52 21.98784 117.48697 36791 ft 537 kts 63°
2026-05-05 09:52 22.00380 117.52268 37010 ft 536 kts 58°
2026-05-05 09:53 22.04248 117.59142 36977 ft 535 kts 54°
2026-05-05 09:53 22.08189 117.65912 36973 ft 532 kts 54°
2026-05-05 09:54 22.12064 117.72699 36980 ft 531 kts 55°
2026-05-05 09:54 22.15878 117.79464 36983 ft 531 kts 55°
2026-05-05 09:55 22.19715 117.86282 36987 ft 532 kts 55°
2026-05-05 09:55 22.23566 117.93123 36983 ft 534 kts 55°
2026-05-05 09:56 22.27429 117.99992 36985 ft 535 kts 55°
2026-05-05 09:56 22.31348 118.06766 36988 ft 536 kts 54°
2026-05-05 09:57 22.35359 118.13557 36992 ft 537 kts 54°
2026-05-05 09:57 22.39351 118.20379 36985 ft 537 kts 54°
2026-05-05 09:58 22.43296 118.27249 36991 ft 538 kts 55°
2026-05-05 09:58 22.47187 118.34162 36985 ft 539 kts 55°
2026-05-05 09:59 22.51087 118.41080 36987 ft 539 kts 55°
2026-05-05 09:59 22.54968 118.47949 36988 ft 539 kts 55°
2026-05-05 10:00 22.58878 118.54861 36989 ft 539 kts 55°
2026-05-05 10:00 22.62815 118.61755 36995 ft 539 kts 54°
2026-05-05 10:01 22.66756 118.68653 36989 ft 539 kts 55°
2026-05-05 10:01 22.70664 118.75514 36990 ft 539 kts 55°
2026-05-05 10:02 22.74595 118.82433 36995 ft 539 kts 55°
2026-05-05 10:02 22.78525 118.89360 36991 ft 540 kts 55°
2026-05-05 10:03 22.82455 118.96297 36991 ft 541 kts 55°
2026-05-05 10:03 22.86363 119.03203 36992 ft 541 kts 55°
2026-05-05 10:04 22.90295 119.10159 36999 ft 541 kts 55°
2026-05-05 10:04 22.94229 119.17129 36995 ft 542 kts 55°
2026-05-05 10:05 22.98162 119.24108 36994 ft 542 kts 55°
2026-05-05 10:05 23.02095 119.31096 36998 ft 543 kts 55°
2026-05-05 10:06 23.05999 119.38041 36978 ft 543 kts 55°
2026-05-05 10:06 23.09978 119.45006 36977 ft 541 kts 51°
2026-05-05 10:07 23.14830 119.51172 37001 ft 534 kts 39°
2026-05-05 10:07 23.20475 119.56326 36990 ft 527 kts 31°
2026-05-05 10:08 23.26393 119.60950 36992 ft 528 kts 30°
2026-05-05 10:08 23.32354 119.65638 37003 ft 530 kts 31°
2026-05-05 10:09 23.38302 119.70394 37005 ft 531 kts 31°
2026-05-05 10:09 23.44253 119.75169 37008 ft 532 kts 31°
2026-05-05 10:10 23.47239 119.77563 36716 ft 537 kts 31°
2026-05-05 10:10 23.50275 119.79886 35901 ft 542 kts 28°
2026-05-05 10:10 23.53437 119.82115 35075 ft 541 kts 26°
2026-05-05 10:10 23.56640 119.84276 34168 ft 543 kts 25°
2026-05-05 10:11 23.59867 119.86425 33124 ft 545 kts 26°
2026-05-05 10:11 23.63110 119.88595 32108 ft 547 kts 26°
2026-05-05 10:11 23.66345 119.90786 31062 ft 549 kts 27°
2026-05-05 10:11 23.69587 119.93008 30222 ft 548 kts 27°
2026-05-05 10:12 23.72792 119.95223 29459 ft 543 kts 27°
2026-05-05 10:12 23.75959 119.97420 28726 ft 537 kts 27°
2026-05-05 10:12 23.79052 119.99566 28044 ft 531 kts 27°
2026-05-05 10:12 23.82151 120.01715 27392 ft 525 kts 27°
2026-05-05 10:13 23.85222 120.03842 26742 ft 520 kts 27°
2026-05-05 10:13 23.88266 120.05948 26115 ft 515 kts 27°
2026-05-05 10:13 23.91274 120.08030 25478 ft 510 kts 27°
2026-05-05 10:13 23.94262 120.10098 24838 ft 506 kts 28°
2026-05-05 10:14 23.97225 120.12152 24211 ft 502 kts 28°
2026-05-05 10:14 24.00167 120.14192 23589 ft 499 kts 28°
2026-05-05 10:14 24.03048 120.16191 22868 ft 495 kts 28°
2026-05-05 10:14 24.05938 120.18198 22229 ft 490 kts 29°
2026-05-05 10:15 24.08799 120.20186 21610 ft 484 kts 29°
2026-05-05 10:15 24.11633 120.22156 21007 ft 479 kts 29°
2026-05-05 10:15 24.14431 120.24102 20418 ft 475 kts 29°
2026-05-05 10:15 24.17206 120.26033 19834 ft 470 kts 30°
2026-05-05 10:16 24.19960 120.27950 19242 ft 467 kts 30°
2026-05-05 10:16 24.22654 120.29826 18659 ft 464 kts 30°
2026-05-05 10:16 24.25373 120.31721 18037 ft 462 kts 30°
2026-05-05 10:16 24.28075 120.33605 17395 ft 459 kts 30°
2026-05-05 10:17 24.30756 120.35476 16799 ft 455 kts 31°
2026-05-05 10:17 24.33410 120.37329 16218 ft 450 kts 31°
2026-05-05 10:17 24.36045 120.39170 15640 ft 446 kts 31°
2026-05-05 10:17 24.38650 120.40991 15111 ft 442 kts 31°
2026-05-05 10:18 24.41228 120.42793 14629 ft 437 kts 31°
2026-05-05 10:18 24.43758 120.44564 13983 ft 425 kts 31°
2026-05-05 10:18 24.46213 120.46283 13365 ft 424 kts 31°
2026-05-05 10:18 24.48697 120.48022 12786 ft 421 kts 31°
2026-05-05 10:19 24.51152 120.49742 12260 ft 418 kts 31°
2026-05-05 10:19 24.53585 120.51447 11793 ft 412 kts 31°
2026-05-05 10:19 24.55967 120.53118 11187 ft 399 kts 31°
2026-05-05 10:19 24.58284 120.54745 10939 ft 390 kts 31°
2026-05-05 10:20 24.60541 120.56329 10760 ft 380 kts 31°
2026-05-05 10:20 24.62739 120.57872 10592 ft 370 kts 31°
2026-05-05 10:20 24.64879 120.59375 10435 ft 361 kts 30°
2026-05-05 10:20 24.66937 120.60822 10286 ft 352 kts 31°
2026-05-05 10:21 24.68795 120.62292 10145 ft 344 kts 38°
2026-05-05 10:21 24.70576 120.64013 9999 ft 337 kts 41°
2026-05-05 10:21 24.72277 120.65754 9795 ft 330 kts 41°
2026-05-05 10:21 24.73925 120.67445 9511 ft 317 kts 41°
2026-05-05 10:22 24.75517 120.69059 9152 ft 307 kts 40°
2026-05-05 10:22 24.77080 120.70624 8729 ft 300 kts 40°
2026-05-05 10:22 24.78617 120.72150 8428 ft 297 kts 40°
2026-05-05 10:22 24.80139 120.73653 8130 ft 298 kts 40°
2026-05-05 10:23 24.81684 120.75177 7832 ft 299 kts 40°
2026-05-05 10:23 24.83232 120.76703 7523 ft 299 kts 40°
2026-05-05 10:23 24.84780 120.78230 7213 ft 296 kts 40°
2026-05-05 10:23 24.86294 120.79722 6909 ft 290 kts 40°
2026-05-05 10:24 24.87800 120.81206 6621 ft 291 kts 40°
2026-05-05 10:24 24.89310 120.82695 6329 ft 292 kts 40°
2026-05-05 10:24 24.90789 120.84218 5997 ft 289 kts 49°
2026-05-05 10:24 24.91697 120.86156 5704 ft 286 kts 77°
2026-05-05 10:25 24.91825 120.88281 5428 ft 280 kts 94°
2026-05-05 10:25 24.91741 120.89799 5230 ft 278 kts 95°
2026-05-05 10:25 24.91624 120.91929 4942 ft 277 kts 94°
2026-05-05 10:26 24.91514 120.94037 4656 ft 274 kts 94°
2026-05-05 10:26 24.91415 120.96076 4496 ft 258 kts 94°
2026-05-05 10:26 24.91324 120.97994 4367 ft 243 kts 94°
2026-05-05 10:26 24.91255 120.99796 4254 ft 229 kts 87°
2026-05-05 10:27 24.91723 121.01383 4165 ft 211 kts 57°
2026-05-05 10:27 24.92546 121.02676 4109 ft 211 kts 53°
2026-05-05 10:27 24.93458 121.03957 3852 ft 211 kts 51°
2026-05-05 10:27 24.94394 121.05178 3633 ft 206 kts 49°
2026-05-05 10:28 24.95322 121.06363 3431 ft 203 kts 49°
2026-05-05 10:28 24.96252 121.07545 3229 ft 205 kts 50°
2026-05-05 10:28 24.97174 121.08717 3066 ft 199 kts 50°
2026-05-05 10:28 24.98078 121.09869 2786 ft 198 kts 50°
2026-05-05 10:29 24.98972 121.11007 2548 ft 195 kts 50°
2026-05-05 10:29 24.99845 121.12118 2307 ft 193 kts 50°
2026-05-05 10:29 25.00710 121.13219 2053 ft 185 kts 51°
2026-05-05 10:29 25.01514 121.14241 1801 ft 169 kts 51°
2026-05-05 10:30 25.02242 121.15169 1597 ft 150 kts 51°
2026-05-05 10:30 25.02891 121.15996 1410 ft 135 kts 52°
2026-05-05 10:30 25.03540 121.16826 1271 ft 146 kts 52°
2026-05-05 10:30 25.04211 121.17680 1046 ft 147 kts 51°
2026-05-05 10:31 25.04871 121.18521 832 ft 146 kts 51°
2026-05-05 10:31 25.05543 121.19378 647 ft 150 kts 50°
2026-05-05 10:31 25.06222 121.20244 453 ft 149 kts 50°
2026-05-05 10:31 25.06900 121.21098 232 ft 147 kts 50°
2026-05-05 10:32 25.07567 121.21943 107 ft 141 kts 51°
2026-05-05 10:32 25.08127 121.22664 107 ft 100 kts 49°
2026-05-05 10:32 25.08392 121.23018 107 ft 39 kts 60°
2026-05-05 10:32 25.08457 121.23268 106 ft 26 kts 79°
2026-05-05 10:33 25.08463 121.23455 108 ft 24 kts 121°
2026-05-05 10:33 25.08343 121.23425 108 ft 21 kts 230°
2026-05-05 10:33 25.08250 121.23309 108 ft 19 kts 228°
2026-05-05 10:33 25.08166 121.23200 108 ft 15 kts 229°
2026-05-05 10:34 25.08108 121.23127 108 ft 9 kts 226°
2026-05-05 10:34 25.08053 121.23123 106 ft 9 kts 151°
2026-05-05 10:34 25.08007 121.23164 106 ft 7 kts 137°
2026-05-05 10:34 25.08003 121.23168 107 ft 0 kts 138°